This is the latest recevied weather packets stored in our database for station/object SP1BMW-13. If no packets are shown the sender has not sent any weather packets the latest 10 day(s).
| Time | Temp. | Humidity | Pressure | Rain* | Wind** | Luminosity | Snow |
|---|---|---|---|---|---|---|---|
| 1787938397 | 21.11° C | 75% | 1007.5 hPa | 0 mm | 0.45 m/s, 26° | 11 W/m² | - |
| 1787938337 | 21.11° C | 75% | 1007.6 hPa | 0 mm | 0 m/s | 11 W/m² | - |
| 1787938278 | 21.67° C | 75% | 1007.6 hPa | 0 mm | 0.89 m/s, 31° | 12 W/m² | - |
| 1787938217 | 21.67° C | 75% | 1007.5 hPa | 0 mm | 0.89 m/s, 22° | 12 W/m² | - |
| 1787938158 | 21.67° C | 75% | 1007.5 hPa | 0 mm | 0.45 m/s, 84° | 13 W/m² | - |
| 1787938098 | 21.67° C | 74% | 1007.7 hPa | 0 mm | 0 m/s | 13 W/m² | - |
| 1787938038 | 21.67° C | 74% | 1007.6 hPa | 0 mm | 0.89 m/s, 44° | 13 W/m² | - |
| 1787937978 | 21.67° C | 74% | 1007.6 hPa | 0 mm | 0.89 m/s, 43° | 13 W/m² | - |
| 1787937917 | 21.11° C | 74% | 1007.5 hPa | 0 mm | 0.89 m/s, 39° | 13 W/m² | - |
| 1787937858 | 21.11° C | 74% | 1007.6 hPa | 0 mm | 0.89 m/s, 92° | 13 W/m² | - |
| 1787937798 | 21.11° C | 74% | 1007.6 hPa | 0 mm | 0.45 m/s, 63° | 13 W/m² | - |
| 1787937738 | 21.11° C | 74% | 1007.7 hPa | 0 mm | 0.89 m/s, 78° | 13 W/m² | - |
| 1787937677 | 21.11° C | 75% | 1007.6 hPa | 0 mm | 0.45 m/s, 354° | 13 W/m² | - |
| 1787937617 | 21.11° C | 75% | 1007.4 hPa | 0 mm | 0.45 m/s, 60° | 13 W/m² | - |
| 1787937557 | 21.11° C | 75% | 1007.6 hPa | 0 mm | 0.45 m/s, 2° | 13 W/m² | - |
| 1787937497 | 21.11° C | 75% | 1007.4 hPa | 0 mm | 0.45 m/s, 37° | 13 W/m² | - |
| 1787937438 | 21.11° C | 75% | 1007.5 hPa | 0 mm | 1.79 m/s, 24° | 13 W/m² | - |
| 1787937377 | 21.11° C | 75% | 1007.4 hPa | 0 mm | 0.45 m/s, 30° | 13 W/m² | - |
| 1787937318 | 21.11° C | 75% | 1007.5 hPa | 0 mm | 0.89 m/s, 25° | 13 W/m² | - |
| 1787937258 | 21.11° C | 75% | 1007.6 hPa | 0 mm | 0.45 m/s, 46° | 13 W/m² | - |
| 1787937197 | 21.11° C | 75% | 1007.6 hPa | 0 mm | 0.45 m/s, 44° | 13 W/m² | - |
| 1787937137 | 21.11° C | 75% | 1007.6 hPa | 0 mm | 0.45 m/s, 32° | 13 W/m² | - |
| 1787937077 | 21.11° C | 74% | 1007.4 hPa | 0 mm | 0.45 m/s, 48° | 13 W/m² | - |
| 1787937017 | 21.11° C | 75% | 1007.3 hPa | 0 mm | 0.45 m/s, 39° | 13 W/m² | - |
| 1787936957 | 21.67° C | 75% | 1007.7 hPa | 0 mm | 1.79 m/s, 37° | 13 W/m² | - |
* Rain latest hour (hover to see other rain measurements)
** Current wind speed in m/s (hover to see current wind gust speed)